TimeCST,TemperatureF,Dew PointF,Humidity,Sea Level PressureIn,VisibilityMPH,Wind Direction,Wind SpeedMPH,Gust SpeedMPH,PrecipitationIn,Events,Conditions,WindDirDegrees,DateUTC
12:53 AM,18.0,10.9,74,30.40,10.0,Calm,Calm,-,N/A,,Clear,0,2013-11-28 06:53:00
1:53 AM,19.0,10.9,71,30.41,10.0,Calm,Calm,-,N/A,,Clear,0,2013-11-28 07:53:00
2:53 AM,17.1,10.0,74,30.42,10.0,Calm,Calm,-,N/A,,Clear,0,2013-11-28 08:53:00
3:53 AM,17.1,10.9,77,30.43,10.0,Calm,Calm,-,N/A,,Clear,0,2013-11-28 09:53:00
4:53 AM,18.0,10.9,74,30.46,10.0,Calm,Calm,-,N/A,,Clear,0,2013-11-28 10:53:00
5:53 AM,16.0,10.0,77,30.48,10.0,South,3.5,-,N/A,,Clear,180,2013-11-28 11:53:00
6:53 AM,15.1,10.9,84,30.48,10.0,Calm,Calm,-,N/A,,Clear,0,2013-11-28 12:53:00
7:53 AM,21.0,14.0,74,30.48,10.0,South,4.6,-,N/A,,Clear,170,2013-11-28 13:53:00
8:53 AM,26.1,12.9,58,30.50,10.0,South,6.9,-,N/A,,Clear,190,2013-11-28 14:53:00
9:53 AM,28.9,12.9,51,30.49,10.0,South,9.2,-,N/A,,Clear,180,2013-11-28 15:53:00
10:53 AM,33.1,12.9,43,30.46,10.0,South,8.1,-,N/A,,Clear,190,2013-11-28 16:53:00
11:53 AM,35.1,12.9,40,30.43,10.0,South,9.2,-,N/A,,Clear,180,2013-11-28 17:53:00
12:53 PM,37.9,12.9,36,30.40,10.0,South,9.2,-,N/A,,Clear,180,2013-11-28 18:53:00
1:53 PM,39.9,14.0,35,30.39,10.0,SSW,11.5,-,N/A,,Clear,200,2013-11-28 19:53:00
2:53 PM,41.0,12.9,32,30.37,10.0,SSW,13.8,-,N/A,,Clear,200,2013-11-28 20:53:00
3:53 PM,39.9,12.9,33,30.37,10.0,SSW,9.2,-,N/A,,Clear,200,2013-11-28 21:53:00
4:53 PM,37.9,12.9,36,30.40,10.0,Calm,Calm,-,N/A,,Clear,0,2013-11-28 22:53:00
5:53 PM,32.0,17.1,54,30.43,10.0,Calm,Calm,-,N/A,,Clear,0,2013-11-28 23:53:00
6:53 PM,30.0,16.0,56,30.45,10.0,Calm,Calm,-,N/A,,Clear,0,2013-11-29 00:53:00
7:53 PM,28.0,17.1,63,30.47,10.0,Calm,Calm,-,N/A,,Clear,0,2013-11-29 01:53:00
8:53 PM,28.9,17.1,61,30.48,10.0,Calm,Calm,-,N/A,,Clear,0,2013-11-29 02:53:00
9:53 PM,25.0,18.0,75,30.50,10.0,Calm,Calm,-,N/A,,Clear,0,2013-11-29 03:53:00
10:53 PM,24.1,19.0,81,30.51,10.0,Calm,Calm,-,N/A,,Clear,0,2013-11-29 04:53:00
11:53 PM,24.1,18.0,77,30.51,10.0,Calm,Calm,-,N/A,,Clear,0,2013-11-29 05:53:00